Showing default

SHIYAN 24C 01, 58650

Orbit data source: Space-Track

SHIYAN 24C 01, 58650 is a payload satellite owned by CASC (CN) in SSO that was launched on Mon, 25 Dec 2023 UTC via a CHANG ZHENG 11 launch vehicle from the South China Sea Launch Area (SCSLA). Payload-class satellites include a variety of spacecraft equipped with specific instruments for various scientific and technological missions. These include communications satellites like Starlink; space stations such as the ISS; scientific satellites like the Hubble; Earth observation satellites from companies like Planet Labs, Umbra, and HawkEye 360; GPS; miniature CubeSats for education and research; and military/defense satellites.

Loading next visibility...
Identifier
58650, 2023-206A
Orbit
SSO
Last TLE update
19 hours ago
Origin
Manufacturer
SECM?
Mission
Operational Defense Technology
Bus & Motor
Unknown
Mass
~80 kg wet, ~80 kg dry
Launch date (UTC)
2023-12-25 (2 years ago)
Launch vehicle
CHANG ZHENG 11
Launch site
South China Sea Launch Area (SCSLA)
Object type
Payload
Rocket body
Debris
Shape & HBR
Box + 2 Pan, 8 m
Radar Cross Section
6.005 m², Medium (>0.1 m² and < 1m²)

Expand to show TLE details & history

TLE from 19 hours ago
0 SHIYAN 24C 01
1 58650U 23206A   25185.90388002  .00001898  00000-0  16998-3 0  9990
2 58650  97.3631 167.5465 0001092 331.2616  28.8547 14.96917552 83333
Epoch: 2025-07-04T21:41Z
TLE epoch observation values (Epoch: 2025-07-04T21:41:35.233Z)
Latitude
0.00002°
Longitude
-80.9999°
Altitude
578.822 km
Speed
7.572 km/s
True Right ascension
11h 10m 11s
True Declination
0° 00' 00"
Sunlit
Object was in daylight at epoch
Visualization orbit readout
Latitude
23.5053°
Longitude
-83.44456°
Altitude
578.957 km
Speed
7.573 km/s
Apparent Right ascension
13h 29m 38s
Apparent Declination
-9° 13' 10"
Sunlit
Object is in daylight
Visualization observer readout
Local Sidereal Time
04:58:17
Azimuth
71.182° E
Elevation
-34.557°
Doppler factor
1
Orbital elements
Apogee altitude
574.181 km
Perigee altitude
572.663 km
Semi-major axis
6,951.559 km
Eccentricity
0.00011
Inclination
97.3631°
RAAN
167.5465°
Arg. of periapsis
331.2616°
True anomaly
Unknown
Mean anomaly
28.8547°
Eccentric anomaly
Unknown
Mean motion
3.74472 °/min
Orbital period
96.14 mins
BSTAR
0.00016998
Loading maneuver chart data...
Loading SW <> Apogee altitude chart data...
Loading historical data...
Loading historical data...
Loading historical data...
Loading historical data...
Loading historical data...
Loading historical data...
Loading historical data...
Other satellites on launch #206 in the year 2023 (2023-12-25 UTC)

SHIYAN 24C 01 Visibility forecast

Observer location: undefined°, undefined°

Span
Click to sort rows by Start time (UTC) header in descending order
Start Az.
Max El. time (UTC)
Max El. Az.
Max El.
End time (UTC)
End Az.
5 mins2025-07-05 21:54:58.955Z105.303° ESE2025-07-05 21:56:58.955Z69.618° E19.025°2025-07-05 21:59:58.955Z21.32° NNE
5 mins2025-07-05 23:29:58.955Z215.738° SW2025-07-05 23:31:58.955Z259.372° W26.458°2025-07-05 23:34:58.955Z319.745° NNW
5 mins2025-07-06 11:10:58.955Z42.407° NE2025-07-06 11:12:58.955Z93.235° ESE31.968°2025-07-06 11:15:58.955Z161.232° S
|